Wind_Speed
12 12 12 13 15 16 14 14 13 14 17 17 19 18 19 22 20 19 21 21 21 22 22 22 22 23 22 22 22 22 22 23 23 23 23 23 23 23 23 23 23 23 23 23
13 14 14 15 16 14 13 14 13 14 16 19 18 18 19 21 21 20 20 21 21 22 23 23 23 24 23 23 23 23 23 23 23 24 24 24 25 25 25 25 24 24 24 23
15 16 16 17 15 13 13 14 13 13 15 16 17 19 20 21 21 21 20 21 22 23 24 24 24 24 24 24 24 24 24 24 25 25 25 26 26 26 26 25 25 25 25 24
15 16 17 16 14 13 14 14 14 14 15 14 15 19 20 21 21 21 21 22 22 24 25 25 25 25 24 24 24 25 25 25 26 26 26 26 26 25 25 24 24 25 25 25
14 14 15 15 14 13 13 14 14 13 14 15 16 18 19 21 21 22 23 22 23 24 25 26 25 24 25 25 26 26 26 26 26 26 25 25 25 24 24 23 24 24 25 25
13 12 13 14 12 12 11 12 11 11 14 17 17 17 19 22 21 23 24 24 23 24 26 26 25 25 25 26 26 26 26 26 25 25 24 24 24 24 23 23 23 24 25 25
10 11 11 12 12 12 12 10 11 12 15 17 17 20 22 21 22 24 24 24 23 24 26 26 26 26 25 26 25 25 25 26 26 25 25 25 24 24 24 24 24 24 24 24
9 12 12 12 13 13 13 12 12 14 14 16 17 20 22 23 21 22 23 24 24 25 26 27 26 26 25 25 25 26 26 26 26 25 25 24 23 23 24 24 24 24 24 24
10 13 13 13 13 14 12 12 13 15 14 16 18 19 21 21 21 21 21 23 25 26 27 26 26 26 26 25 26 27 27 27 26 25 25 24 23 23 23 23 24 24 24 23
11 13 14 14 13 13 13 14 14 15 16 16 16 19 21 21 21 21 22 24 25 26 27 26 26 26 27 27 27 27 27 26 26 25 25 24 24 23 23 23 24 23 23 23
14 13 13 13 13 14 14 14 15 16 16 17 17 19 20 20 20 22 22 24 26 26 26 26 27 27 28 28 28 27 25 25 25 25 25 25 24 24 23 24 23 23 23 24
15 15 14 13 13 14 15 15 15 16 16 16 18 20 21 22 22 23 22 23 24 25 25 26 26 27 27 27 27 26 26 25 25 25 25 25 24 24 23 23 23 23 24 24
15 15 14 13 13 13 14 16 16 17 18 18 18 20 21 23 24 24 24 24 25 26 25 25 26 26 27 27 27 26 25 25 25 25 25 24 25 25 24 23 23 23 23 24
16 16 15 14 13 15 16 16 17 18 19 20 20 20 22 23 24 24 25 25 26 26 25 26 26 26 26 26 26 26 26 26 25 25 25 25 24 24 24 24 23 23 23 23
16 16 16 15 14 15 16 17 16 17 18 19 20 21 21 23 24 25 26 26 26 27 25 26 26 26 26 26 26 27 26 26 26 25 25 24 24 23 23 23 22 22 22 23
16 16 16 16 15 15 16 16 16 16 17 19 20 22 22 22 24 26 26 27 27 27 26 28 26 26 26 26 27 26 26 26 26 25 25 24 23 23 23 22 21 21 22 22
16 16 16 15 15 16 16 16 17 18 18 20 21 23 23 23 24 24 24 25 26 26 26 27 27 26 27 27 27 27 26 26 26 26 25 24 24 23 22 21 21 22 22 22
17 18 18 18 17 17 17 17 18 19 20 21 22 22 22 22 23 24 25 26 26 27 26 27 27 27 27 27 27 27 26 26 26 25 24 23 23 23 22 22 22 22 23 23
18 19 19 18 18 19 18 19 19 20 22 22 22 22 23 24 24 25 25 26 27 27 26 27 27 27 27 27 27 26 26 26 25 24 24 24 23 23 23 23 23 23 23 23
19 19 19 19 19 19 19 21 21 22 24 24 23 23 23 24 25 25 26 26 27 27 27 27 27 27 27 28 27 27 27 26 26 25 25 25 24 24 24 24 23 22 22 22
20 20 20 19 20 20 22 23 23 24 25 25 24 24 25 25 26 26 26 26 27 28 28 27 27 27 28 28 27 27 26 26 26 26 26 25 25 25 24 24 22 22 22 21
21 21 20 21 21 22 24 24 24 25 25 26 25 25 26 26 26 26 26 27 28 28 28 27 28 28 27 27 27 26 26 26 26 26 26 25 25 25 24 23 22 21 21 21
23 23 24 25 25 24 25 26 26 26 27 27 26 26 26 26 26 27 27 27 28 28 28 27 28 27 27 26 26 26 25 25 25 26 25 25 25 25 24 23 22 21 21 20
26 25 26 27 26 26 26 27 26 27 27 27 27 27 27 27 27 27 27 27 28 28 28 27 27 27 27 27 26 26 25 25 25 25 25 26 26 25 24 22 21 20 20 20
27 27 27 28 28 27 27 27 27 28 28 27 27 28 28 28 27 27 27 27 27 28 28 27 27 27 27 26 26 26 25 25 25 25 26 26 26 24 23 22 21 20 19 19
28 28 28 29 28 29 28 29 28 28 28 28 28 28 28 28 28 28 27 27 27 28 28 28 28 27 27 27 27 27 26 26 26 26 27 26 25 24 22 21 20 20 20 19
Wind_Direction
244 251 252 253 255 254 259 262 265 272 280 282 283 287 290 298 302 303 306 308 309 309 310 309 308 308 308 307 308 306 305 305 305 305 304 299 297 295 295 295 297 296 295 293
244 249 247 246 253 260 260 263 266 270 278 281 286 291 294 294 301 304 308 308 307 308 309 309 308 308 307 307 307 308 307 305 306 306 305 300 297 294 292 292 293 294 294 292
243 243 248 252 253 256 260 265 269 271 276 281 290 292 294 297 302 305 305 307 309 310 311 310 310 310 308 308 307 308 309 309 307 305 304 302 299 296 292 292 292 294 292 290
242 241 248 255 255 256 260 268 271 273 282 285 286 286 292 295 301 304 305 306 309 309 310 311 310 309 308 307 307 308 308 308 308 307 304 303 301 298 295 293 292 293 292 291
239 240 247 254 256 261 261 264 269 279 290 288 284 283 290 297 299 303 306 307 309 312 312 313 312 310 308 307 308 308 308 309 309 308 306 305 303 302 299 295 294 294 293 293
242 238 246 255 259 264 262 263 272 289 294 289 289 288 289 295 296 303 306 308 311 313 313 315 315 314 312 310 310 310 310 312 312 310 308 307 305 304 302 300 298 296 294 292
249 248 252 259 262 267 266 270 273 277 280 284 292 290 287 293 295 300 303 306 311 313 314 315 316 315 314 313 312 312 312 313 313 312 310 308 306 304 303 301 299 297 295 291
251 256 255 260 259 264 265 268 270 275 277 284 285 281 285 290 294 298 301 304 309 311 313 315 315 315 315 314 314 314 313 313 312 311 311 310 309 306 303 301 298 297 295 292
245 253 260 262 266 264 263 269 272 279 280 278 278 281 283 286 293 296 302 304 308 311 313 315 316 316 316 315 315 314 313 313 312 310 311 310 309 307 305 303 301 298 295 292
248 252 262 272 272 272 271 269 273 274 275 273 279 282 286 290 292 297 302 303 308 310 314 315 315 316 317 317 315 313 311 313 313 312 312 311 309 307 306 305 301 298 296 294
248 252 262 267 267 271 275 271 270 273 274 277 280 286 292 294 298 299 300 304 307 312 315 315 315 316 317 318 317 316 315 316 315 314 312 311 309 308 308 307 304 300 298 295
257 258 261 267 274 273 274 275 271 272 272 276 280 286 293 296 297 298 302 307 312 315 316 315 315 317 317 317 318 317 316 315 315 314 313 312 311 310 309 309 305 303 300 297
263 262 265 263 269 273 276 279 280 280 284 282 281 284 289 294 300 304 305 310 313 313 314 314 316 317 317 318 319 319 319 319 318 317 314 311 311 311 310 309 305 303 302 301
266 265 264 264 263 272 275 281 281 280 279 280 279 283 286 293 299 304 308 310 311 311 313 314 315 317 318 318 319 319 319 319 318 317 317 315 313 312 311 310 307 305 305 305
265 265 267 270 274 272 276 279 279 279 280 283 285 287 289 295 300 305 306 308 309 310 313 314 314 315 317 318 318 318 319 319 319 318 317 314 313 311 310 309 307 306 306 305
267 267 269 272 273 274 277 280 278 277 278 282 284 285 288 293 300 304 306 307 309 310 312 313 314 316 316 318 317 318 318 319 319 318 317 315 312 310 309 308 309 307 306 305
266 269 275 279 280 279 275 279 279 281 285 284 281 281 284 290 297 300 303 306 309 312 312 312 313 314 314 316 316 317 317 317 317 317 316 315 313 312 311 310 309 308 307 306
263 267 273 279 284 281 283 282 281 281 280 279 281 284 290 297 300 300 303 308 310 312 312 312 313 312 313 315 316 315 316 317 318 317 315 314 312 311 310 309 309 307 305 305
268 270 271 274 277 279 282 280 278 279 280 281 282 286 291 295 297 299 303 307 308 309 310 311 311 312 313 314 315 315 316 317 317 316 315 313 310 308 308 308 308 307 306 306
269 270 272 273 274 277 281 280 281 283 282 284 285 286 289 292 295 299 304 306 308 309 311 311 310 311 311 313 313 314 315 315 315 314 313 312 311 311 310 309 308 308 309 309
267 269 271 273 275 277 279 281 284 283 287 290 288 288 290 293 297 300 302 305 307 308 309 310 310 310 311 312 313 313 314 313 313 314 314 313 313 313 311 311 310 309 309 308
267 267 270 272 273 272 276 281 284 286 287 289 290 292 293 295 296 298 301 304 305 307 308 309 310 311 311 313 313 312 311 312 313 314 315 315 315 314 312 311 309 307 306 306
267 267 268 269 272 273 276 280 283 284 287 288 290 292 293 294 296 298 300 302 305 307 310 310 311 311 312 313 314 313 311 311 312 314 315 315 316 314 312 310 309 308 307 306
266 268 270 272 275 276 277 280 281 284 286 288 289 291 292 294 296 298 300 301 304 307 308 310 310 310 311 311 312 311 310 311 312 314 315 315 314 314 312 311 310 308 308 308
266 270 272 274 276 278 280 281 282 285 287 289 289 291 292 295 296 298 300 301 303 305 307 308 309 309 310 310 311 311 310 311 312 314 314 315 315 315 314 313 312 310 309 311
264 267 271 274 276 279 281 281 283 284 287 289 290 291 292 293 294 296 298 301 303 304 306 308 309 309 309 310 311 311 310 311 312 313 313 313 313 313 314 313 312 310 310 310
Height
5869 5871 5872 5875 5876 5877 5878 5878 5879 5880 5877 5876 5874 5872 5869 5866 5863 5861 5859 5857 5854 5852 5850 5847 5845 5842 5840 5838 5835 5833 5831 5828 5826 5823 5821 5819 5817 5815 5813 5812 5810 5809 5807 5806
5867 5869 5871 5872 5873 5874 5874 5875 5876 5877 5875 5873 5870 5868 5866 5863 5861 5858 5856 5854 5852 5849 5847 5844 5841 5839 5836 5834 5831 5829 5826 5823 5821 5818 5815 5813 5811 5809 5807 5806 5804 5803 5801 5800
5865 5868 5868 5869 5869 5870 5871 5872 5872 5872 5871 5869 5867 5864 5862 5859 5858 5856 5853 5850 5849 5846 5843 5841 5838 5835 5832 5830 5827 5824 5821 5818 5816 5813 5810 5807 5804 5802 5801 5799 5798 5797 5795 5794
5862 5864 5865 5865 5866 5867 5868 5869 5869 5868 5866 5864 5864 5861 5859 5855 5854 5852 5849 5847 5845 5843 5840 5837 5834 5831 5828 5826 5823 5820 5817 5814 5810 5807 5804 5801 5798 5796 5794 5793 5792 5790 5789 5787
5859 5861 5862 5862 5864 5864 5864 5866 5865 5864 5863 5861 5860 5858 5857 5852 5850 5849 5847 5844 5841 5839 5836 5833 5830 5827 5824 5821 5818 5815 5812 5808 5804 5801 5798 5795 5792 5790 5788 5786 5785 5784 5782 5781
5855 5857 5859 5860 5861 5861 5861 5862 5862 5861 5860 5859 5858 5856 5855 5851 5848 5846 5844 5841 5838 5836 5832 5829 5826 5823 5819 5816 5813 5810 5807 5803 5799 5795 5792 5790 5787 5784 5782 5780 5779 5777 5776 5774
5853 5855 5856 5857 5858 5859 5859 5859 5860 5859 5858 5858 5857 5855 5852 5849 5846 5844 5841 5839 5835 5833 5829 5825 5822 5818 5815 5812 5808 5805 5801 5798 5794 5790 5787 5784 5781 5778 5776 5774 5772 5771 5769 5767
5852 5854 5854 5854 5855 5856 5856 5857 5857 5856 5855 5856 5854 5851 5850 5846 5843 5841 5838 5836 5833 5829 5826 5821 5818 5814 5811 5807 5804 5800 5796 5793 5789 5785 5782 5778 5775 5772 5770 5768 5766 5764 5762 5761
5850 5851 5852 5852 5852 5853 5853 5853 5854 5853 5852 5852 5850 5847 5844 5842 5840 5837 5835 5832 5829 5825 5822 5818 5814 5810 5807 5803 5799 5795 5791 5787 5783 5780 5777 5773 5770 5767 5764 5762 5759 5757 5755 5754
5847 5848 5849 5850 5850 5849 5850 5850 5850 5849 5848 5847 5846 5844 5839 5837 5835 5832 5830 5828 5824 5821 5817 5813 5809 5806 5802 5798 5794 5789 5785 5782 5778 5774 5771 5768 5765 5761 5759 5756 5753 5751 5748 5747
5844 5845 5846 5846 5846 5846 5847 5847 5846 5845 5844 5843 5842 5841 5835 5833 5831 5828 5826 5822 5820 5816 5812 5809 5805 5801 5797 5794 5789 5784 5780 5776 5772 5769 5766 5762 5759 5755 5752 5750 5747 5745 5743 5741
5841 5842 5842 5843 5843 5843 5843 5843 5842 5841 5840 5839 5838 5838 5832 5830 5827 5824 5821 5818 5815 5812 5808 5805 5801 5797 5793 5788 5784 5779 5774 5771 5768 5764 5761 5757 5753 5750 5747 5744 5741 5739 5737 5734
5838 5839 5839 5840 5841 5840 5839 5839 5838 5837 5836 5834 5833 5833 5827 5826 5823 5820 5817 5814 5811 5807 5804 5801 5797 5793 5789 5784 5779 5774 5770 5766 5763 5759 5756 5752 5748 5745 5742 5739 5736 5733 5731 5729
5835 5835 5836 5837 5837 5836 5835 5835 5834 5834 5832 5831 5829 5827 5823 5821 5819 5816 5813 5810 5806 5803 5799 5796 5792 5788 5785 5780 5776 5771 5767 5762 5759 5755 5751 5747 5744 5740 5737 5734 5731 5728 5726 5723
5831 5832 5832 5832 5832 5832 5832 5831 5830 5829 5828 5827 5825 5821 5819 5817 5814 5812 5808 5805 5802 5798 5794 5791 5787 5783 5780 5776 5771 5767 5763 5758 5754 5750 5746 5743 5739 5736 5733 5729 5726 5723 5721 5718
5827 5828 5828 5829 5828 5828 5827 5826 5826 5825 5823 5822 5820 5817 5814 5811 5810 5807 5804 5801 5797 5793 5790 5786 5783 5778 5775 5771 5767 5762 5758 5753 5749 5745 5741 5738 5734 5731 5728 5725 5722 5719 5716 5714
5824 5824 5824 5824 5824 5824 5823 5823 5821 5819 5818 5817 5814 5812 5810 5808 5805 5802 5799 5796 5793 5789 5785 5782 5778 5774 5770 5766 5762 5757 5753 5749 5744 5740 5736 5733 5729 5726 5724 5721 5718 5715 5712 5709
5820 5820 5820 5820 5820 5819 5821 5818 5817 5815 5812 5811 5808 5806 5803 5802 5800 5797 5795 5792 5788 5784 5781 5777 5773 5769 5766 5761 5757 5753 5748 5744 5740 5736 5732 5728 5725 5722 5719 5716 5713 5710 5707 5704
5815 5816 5816 5816 5815 5814 5815 5812 5811 5810 5807 5806 5804 5802 5800 5798 5795 5793 5790 5787 5783 5779 5776 5772 5768 5764 5761 5756 5752 5748 5744 5740 5735 5731 5727 5724 5721 5718 5715 5712 5708 5705 5702 5700
5810 5810 5811 5810 5810 5810 5809 5807 5806 5806 5802 5800 5798 5796 5794 5793 5791 5788 5785 5781 5778 5774 5770 5767 5763 5759 5755 5751 5747 5743 5739 5735 5731 5727 5723 5719 5716 5713 5710 5707 5703 5700 5697 5694
5805 5805 5805 5805 5805 5803 5802 5801 5801 5800 5798 5794 5791 5790 5789 5787 5785 5782 5779 5776 5773 5769 5765 5762 5758 5754 5750 5746 5742 5738 5734 5730 5726 5722 5719 5715 5711 5708 5705 5701 5698 5695 5692 5690
5800 5800 5800 5799 5799 5800 5796 5795 5795 5793 5791 5789 5786 5784 5783 5781 5778 5776 5773 5770 5767 5764 5760 5757 5753 5749 5745 5741 5737 5734 5730 5726 5722 5718 5714 5710 5707 5703 5700 5696 5694 5691 5688 5685
5794 5795 5794 5794 5794 5792 5791 5790 5788 5786 5784 5783 5781 5779 5777 5775 5772 5770 5767 5764 5761 5758 5755 5751 5747 5744 5740 5736 5732 5729 5725 5721 5717 5713 5710 5706 5702 5699 5695 5692 5689 5686 5683 5680
5787 5787 5787 5786 5785 5785 5784 5783 5781 5780 5779 5777 5775 5773 5771 5769 5766 5764 5761 5758 5755 5752 5749 5745 5742 5738 5735 5731 5727 5723 5720 5716 5712 5709 5705 5701 5697 5694 5690 5687 5684 5681 5678 5676
5779 5780 5780 5780 5779 5778 5778 5777 5775 5774 5772 5770 5768 5766 5764 5762 5760 5757 5754 5752 5749 5746 5743 5740 5736 5733 5729 5725 5722 5718 5714 5711 5707 5704 5700 5696 5693 5689 5685 5682 5679 5677 5674 5671
5772 5773 5773 5772 5772 5772 5771 5769 5768 5766 5765 5763 5761 5759 5757 5755 5753 5750 5748 5745 5743 5740 5737 5733 5730 5727 5723 5719 5716 5712 5709 5705 5702 5698 5695 5691 5688 5684 5681 5678 5676 5673 5670 5667